Volver al catálogo

STARLINK-34505

ActivoComunicacionesVLEO
NORAD 64490·PAYLOAD·🇺🇸 United States

Lanzado Jun 23, 2025 desde Cape Canaveral Space Force Station

Loading…

Próximos Pases (próximas 24 horas)

TLE

ActualizadoSource: CelesTrak SupGP

Época: Sep 14, 2026, 22:54 UTC

1 64490C 25133U   26257.95465278  .00031670  00000+0  93609-3 0  2578
2 64490  53.1593 317.3315 0001199  82.9045 168.5792 15.34361616    17

Sigue STARLINK-34505 en tiempo real con AllMySat

Download on the App Store